Regional Weather Roundup
Issued by NWS Sioux Falls, SD

Home | Current Version | Previous Version | Graphics & Text | Print | Product List | Glossary On
Versions: 1 2 3 4 5 6 7 8 9 10 11 12 13 14 15 16 17 18 19 20 21 22 23 24 25 26 27 28 29 30 31 32 33 34 35 36 37 38 39 40 41 42 43 44 45 46 47 48 49 50
000
ASUS43 KFSD 170110
RWRFSD

WEATHER ROUNDUP FOR SE SOUTH DAKOTA/SW MINNESOTA/NW IOWA
NATIONAL WEATHER SERVICE SIOUX FALLS SD
800 PM CDT TUE SEP 16 2014

NOTE: "FAIR" INDICATES FEW OR NO CLOUDS BELOW 12,000 FEET WITH NO
SIGNIFICANT WEATHER AND OR OBSTRUCTIONS TO VISIBILITY.


SDZ038>040-050-052>070-170200-
SOUTHEAST SOUTH DAKOTA

CITY           SKY/WX    TMP DP  RH WIND       PRES   REMARKS
CHAMBERLAIN    CLEAR     67  58  71 E5        29.89S
HURON          PTCLDY    67  55  65 SE7       29.90S
MADISON        CLOUDY    63  54  72 S9        29.96F
MITCHELL       PTCLDY    66  56  70 S10       29.92F
SIOUX FALLS    MOCLDY    64  50  60 S9        29.97F
WINNER         FAIR      74  54  49 CALM      29.90F
YANKTON        PTCLDY    63  52  67 SE6       29.96F
$$

MNZ071-072-080-081-089-090-097-098-170200-
SOUTHWEST MINNESOTA

CITY           SKY/WX    TMP DP  RH WIND       PRES   REMARKS
FAIRMONT       MOCLDY    57  45  62 S7        30.02S
JACKSON        CLOUDY    59  46  63 S6        30.02S
LUVERNE        CLEAR     57  46  67 S6        30.00S
MARSHALL       CLOUDY    64  48  55 S3        29.99R
MONTEVIDEO     CLOUDY    63  48  59 S5        29.99S
PIPESTONE      PTCLDY    57  48  72 S6        29.99F
REDWOOD FALLS  CLOUDY    62  50  64 S5        29.99S
TRACY          CLOUDY    64  50  61 CALM      30.00R
WINDOM         MOCLDY    59  48  67 SE5       30.01S
WORTHINGTON    CLOUDY    61  46  59 S8        30.01S
$$

IAZ001>003-012>014-020>022-031-032-NEZ013-014-SDZ071-170200-
NORTHWEST IOWA

CITY           SKY/WX    TMP DP  RH WIND       PRES   REMARKS
CHEROKEE       CLEAR     56  50  79 S6        30.02S
DENISON        CLEAR     57  52  82 SE5       30.01F
ESTHERVILLE    CLOUDY    57  49  74 S7        30.01F
LE MARS        PTCLDY    59  52  77 SE8       30.02R
ORANGE CITY    CLEAR     61  50  67 S6        30.02R
SHELDON        CLEAR     55  50  82 S5        30.01R
SIOUX CITY     PTCLDY    58  51  78 S3        30.02R
SPENCER        PTCLDY    56  49  77 S8        30.02F
STORM LAKE     CLEAR     57  52  82 S8        30.03S
$$

ABBREVIATIONS USED IN REMARKS
   TC - TEMPERATURE IN CELSIUS
  WCI - WIND CHILL INDEX
   HX - HEAT INDEX
  VSB - VISIBILITY




USA.gov is the U.S. government's official web portal to all federal, state and local government web resources and services.